Time,TemperatureF,DewpointF,PressureIn,WindDirection,WindDirectionDegrees,WindSpeedMPH,WindSpeedGustMPH,Humidity,HourlyPrecipIn,Conditions,Clouds,dailyrainin,SoftwareType,DateUTC
2013-02-28 00:01:00,13.0,-1.0,-100.00,North,0,-999.0,-999.0,54,-99.99,,,-99.99,,2013-02-28 07:01:00,
2013-02-28 00:11:00,13.0,-1.0,-100.00,North,0,-999.0,-999.0,54,-99.99,,,-99.99,,2013-02-28 07:11:00,
2013-02-28 00:21:00,13.0,0.0,-100.00,North,0,-999.0,-999.0,57,-99.99,,,-99.99,,2013-02-28 07:21:00,
2013-02-28 00:31:00,12.0,2.0,-100.00,North,0,-999.0,-999.0,63,-99.99,,,-99.99,,2013-02-28 07:31:00,
2013-02-28 00:41:00,12.0,2.0,-100.00,North,0,-999.0,-999.0,63,-99.99,,,-99.99,,2013-02-28 07:41:00,
2013-02-28 00:51:00,13.0,1.0,-100.00,North,0,-999.0,-999.0,61,-99.99,,,-99.99,,2013-02-28 07:51:00,
2013-02-28 01:01:00,13.0,2.0,-100.00,North,0,-999.0,-999.0,62,-99.99,,,-99.99,,2013-02-28 08:01:00,
2013-02-28 01:11:00,13.0,2.0,-100.00,North,0,-999.0,-999.0,62,-99.99,,,-99.99,,2013-02-28 08:11:00,
2013-02-28 01:22:00,13.0,3.0,-100.00,North,0,-999.0,3.0,64,-99.99,,,-99.99,,2013-02-28 08:22:00,
2013-02-28 01:32:00,14.0,2.0,-100.00,North,0,-999.0,3.0,62,-99.99,,,-99.99,,2013-02-28 08:32:00,
2013-02-28 01:42:00,14.0,2.0,-100.00,North,0,-999.0,3.0,62,-99.99,,,-99.99,,2013-02-28 08:42:00,
2013-02-28 01:52:00,13.0,5.0,-100.00,North,0,-999.0,3.0,68,-99.99,,,-99.99,,2013-02-28 08:52:00,
2013-02-28 02:03:00,13.0,4.0,-100.00,North,0,-999.0,3.0,67,-99.99,,,-99.99,,2013-02-28 09:03:00,
2013-02-28 02:11:00,13.0,4.0,-100.00,North,0,-999.0,3.0,67,-99.99,,,-99.99,,2013-02-28 09:11:00,
2013-02-28 02:21:00,13.0,4.0,-100.00,North,0,-999.0,-999.0,68,-99.99,,,-99.99,,2013-02-28 09:21:00,
2013-02-28 02:32:00,15.0,3.0,-100.00,North,0,-999.0,-999.0,65,-99.99,,,-99.99,,2013-02-28 09:32:00,
2013-02-28 02:41:00,15.0,3.0,-100.00,WSW,245,0.0,-999.0,65,-99.99,,,-99.99,,2013-02-28 09:41:00,
2013-02-28 02:52:00,17.0,4.0,-100.00,WSW,245,0.0,-999.0,61,-99.99,,,-99.99,,2013-02-28 09:52:00,
2013-02-28 03:01:00,16.0,6.0,-100.00,WSW,245,0.0,-999.0,62,-99.99,,,-99.99,,2013-02-28 10:01:00,
2013-02-28 03:11:00,16.0,6.0,-100.00,WSW,245,0.0,-999.0,62,-99.99,,,-99.99,,2013-02-28 10:11:00,
2013-02-28 03:21:00,17.0,4.0,-100.00,WSW,245,0.0,-999.0,58,-99.99,,,-99.99,,2013-02-28 10:21:00,
2013-02-28 03:32:00,17.0,4.0,-100.00,WSW,245,0.0,-999.0,57,-99.99,,,-99.99,,2013-02-28 10:32:00,
2013-02-28 03:42:00,17.0,4.0,-100.00,WSW,245,0.0,-999.0,57,-99.99,,,-99.99,,2013-02-28 10:42:00,
2013-02-28 03:52:00,16.0,5.0,-100.00,WSW,245,0.0,-999.0,58,-99.99,,,-99.99,,2013-02-28 10:52:00,
2013-02-28 04:01:00,15.0,5.0,-100.00,WSW,245,0.0,-999.0,62,-99.99,,,-99.99,,2013-02-28 11:01:00,
2013-02-28 04:11:00,15.0,5.0,-100.00,WSW,245,0.0,-999.0,62,-99.99,,,-99.99,,2013-02-28 11:11:00,
2013-02-28 04:21:00,14.0,5.0,-100.00,West,274,1.0,-999.0,65,-99.99,,,-99.99,,2013-02-28 11:21:00,
2013-02-28 04:32:00,15.0,3.0,-100.00,West,274,1.0,-999.0,62,-99.99,,,-99.99,,2013-02-28 11:32:00,
2013-02-28 04:42:00,15.0,3.0,-100.00,West,274,1.0,-999.0,62,-99.99,,,-99.99,,2013-02-28 11:42:00,
2013-02-28 04:52:00,15.0,4.0,-100.00,West,274,1.0,2.0,60,-99.99,,,-99.99,,2013-02-28 11:52:00,
2013-02-28 05:01:00,17.0,2.0,-100.00,West,274,1.0,2.0,57,-99.99,,,-99.99,,2013-02-28 12:01:00,
2013-02-28 05:11:00,17.0,2.0,-100.00,West,274,1.0,2.0,57,-99.99,,,-99.99,,2013-02-28 12:11:00,
2013-02-28 05:21:00,17.0,5.0,-100.00,North,0,1.0,2.0,58,-99.99,,,-99.99,,2013-02-28 12:21:00,
2013-02-28 05:32:00,17.0,4.0,-100.00,North,0,1.0,2.0,56,-99.99,,,-99.99,,2013-02-28 12:32:00,
2013-02-28 05:42:00,17.0,4.0,-100.00,North,0,1.0,2.0,56,-99.99,,,-99.99,,2013-02-28 12:42:00,
2013-02-28 05:52:00,17.0,3.0,-100.00,North,0,1.0,-999.0,54,-99.99,,,-99.99,,2013-02-28 12:52:00,
2013-02-28 06:01:00,17.0,2.0,-100.00,North,0,1.0,-999.0,52,-99.99,,,-99.99,,2013-02-28 13:01:00,
2013-02-28 06:11:00,17.0,2.0,-100.00,North,0,1.0,-999.0,52,-99.99,,,-99.99,,2013-02-28 13:11:00,
2013-02-28 06:21:00,17.0,1.0,-100.00,North,0,1.0,-999.0,49,-99.99,,,-99.99,,2013-02-28 13:21:00,
2013-02-28 06:32:00,17.0,3.0,-100.00,North,0,1.0,-999.0,52,-99.99,,,-99.99,,2013-02-28 13:32:00,
2013-02-28 06:42:00,17.0,3.0,-100.00,North,0,1.0,-999.0,52,-99.99,,,-99.99,,2013-02-28 13:42:00,
2013-02-28 06:52:00,16.0,3.0,-100.00,North,0,1.0,-999.0,55,-99.99,,,-99.99,,2013-02-28 13:52:00,
2013-02-28 07:01:00,16.0,3.0,-100.00,North,0,1.0,-999.0,55,-99.99,,,-99.99,,2013-02-28 14:01:00,
2013-02-28 07:11:00,16.0,3.0,-100.00,North,0,1.0,-999.0,56,-99.99,,,-99.99,,2013-02-28 14:11:00,
2013-02-28 07:21:00,16.0,2.0,-100.00,North,0,-999.0,-999.0,55,-99.99,,,-99.99,,2013-02-28 14:21:00,
2013-02-28 07:32:00,17.0,2.0,-100.00,North,0,-999.0,-999.0,53,-99.99,,,-99.99,,2013-02-28 14:32:00,
2013-02-28 07:42:00,17.0,2.0,-100.00,North,0,-999.0,-999.0,53,-99.99,,,-99.99,,2013-02-28 14:42:00,
2013-02-28 07:52:00,22.0,-1.0,-100.00,North,0,-999.0,-999.0,43,-99.99,,,-99.99,,2013-02-28 14:52:00,
2013-02-28 08:02:00,22.0,-1.0,-100.00,North,0,-999.0,-999.0,43,-99.99,,,-99.99,,2013-02-28 15:02:00,
2013-02-28 08:11:00,26.0,2.0,-100.00,North,0,-999.0,-999.0,39,-99.99,,,-99.99,,2013-02-28 15:11:00,
2013-02-28 08:21:00,25.0,6.0,-100.00,North,0,-999.0,-999.0,41,-99.99,,,-99.99,,2013-02-28 15:21:00,
2013-02-28 08:32:00,28.0,3.0,-100.00,North,0,-999.0,-999.0,36,-99.99,,,-99.99,,2013-02-28 15:32:00,
2013-02-28 08:41:00,28.0,3.0,-100.00,North,0,-999.0,-999.0,36,-99.99,,,-99.99,,2013-02-28 15:41:00,
2013-02-28 08:52:00,27.0,6.0,-100.00,NNW,342,0.0,-999.0,38,-99.99,,,-99.99,,2013-02-28 15:52:00,
2013-02-28 09:01:00,27.0,5.0,-100.00,NNW,342,0.0,-999.0,38,-99.99,,,-99.99,,2013-02-28 16:01:00,
2013-02-28 09:11:00,27.0,5.0,-100.00,NNW,342,0.0,-999.0,38,-99.99,,,-99.99,,2013-02-28 16:11:00,
2013-02-28 09:22:00,28.0,6.0,-100.00,SSW,205,3.0,16.0,39,-99.99,,,-99.99,,2013-02-28 16:22:00,
2013-02-28 09:32:00,29.0,7.0,-100.00,SSW,205,3.0,9.0,40,-99.99,,,-99.99,,2013-02-28 16:32:00,
2013-02-28 09:42:00,29.0,7.0,-100.00,SSW,205,3.0,9.0,40,-99.99,,,-99.99,,2013-02-28 16:42:00,
2013-02-28 09:52:00,28.0,9.0,-100.00,SSW,205,3.0,9.0,41,-99.99,,,-99.99,,2013-02-28 16:52:00,
2013-02-28 10:01:00,27.0,9.0,-100.00,SW,234,2.0,10.0,43,-99.99,,,-99.99,,2013-02-28 17:01:00,
2013-02-28 10:11:00,27.0,9.0,-100.00,West,274,5.0,10.0,43,-99.99,,,-99.99,,2013-02-28 17:11:00,
2013-02-28 10:21:00,26.0,11.0,-100.00,WSW,251,7.0,13.0,49,-99.99,,,-99.99,,2013-02-28 17:21:00,
2013-02-28 10:32:00,29.0,8.0,-100.00,WSW,251,7.0,13.0,45,-99.99,,,-99.99,,2013-02-28 17:32:00,
2013-02-28 10:42:00,29.0,8.0,-100.00,SW,234,4.0,13.0,45,-99.99,,,-99.99,,2013-02-28 17:42:00,
2013-02-28 10:52:00,31.0,8.0,-100.00,SW,234,4.0,15.0,40,-99.99,,,-99.99,,2013-02-28 17:52:00,
2013-02-28 11:02:00,32.0,9.0,-100.00,SW,234,4.0,10.0,38,-99.99,,,-99.99,,2013-02-28 18:02:00,
2013-02-28 11:11:00,32.0,9.0,-100.00,East,80,3.0,10.0,38,-99.99,,,-99.99,,2013-02-28 18:11:00,
2013-02-28 11:22:00,30.0,10.0,-100.00,East,80,3.0,9.0,39,-99.99,,,-99.99,,2013-02-28 18:22:00,
2013-02-28 11:32:00,31.0,9.0,-100.00,West,268,3.0,9.0,39,-99.99,,,-99.99,,2013-02-28 18:32:00,
2013-02-28 11:42:00,31.0,9.0,-100.00,West,268,3.0,9.0,39,-99.99,,,-99.99,,2013-02-28 18:42:00,
2013-02-28 11:52:00,33.0,8.0,-100.00,SW,234,3.0,13.0,37,-99.99,,,-99.99,,2013-02-28 18:52:00,
2013-02-28 12:01:00,30.0,11.0,-100.00,SW,234,3.0,12.0,39,-99.99,,,-99.99,,2013-02-28 19:01:00,
2013-02-28 12:11:00,30.0,11.0,-100.00,SSW,211,4.0,12.0,39,-99.99,,,-99.99,,2013-02-28 19:11:00,
2013-02-28 12:21:00,31.0,9.0,-100.00,SSW,211,4.0,15.0,39,-99.99,,,-99.99,,2013-02-28 19:21:00,
2013-02-28 12:32:00,31.0,9.0,-100.00,SW,228,4.0,15.0,39,-99.99,,,-99.99,,2013-02-28 19:32:00,
2013-02-28 12:41:00,31.0,9.0,-100.00,SW,228,4.0,15.0,39,-99.99,,,-99.99,,2013-02-28 19:41:00,
2013-02-28 12:51:00,30.0,10.0,-100.00,West,279,4.0,14.0,40,-99.99,,,-99.99,,2013-02-28 19:51:00,
2013-02-28 13:01:00,31.0,9.0,-100.00,West,279,4.0,10.0,41,-99.99,,,-99.99,,2013-02-28 20:01:00,
2013-02-28 13:12:00,31.0,9.0,-100.00,WSW,256,3.0,10.0,41,-99.99,,,-99.99,,2013-02-28 20:12:00,
2013-02-28 13:21:00,31.0,9.0,-100.00,WSW,256,3.0,11.0,39,-99.99,,,-99.99,,2013-02-28 20:21:00,
2013-02-28 13:32:00,30.0,12.0,-100.00,West,262,4.0,12.0,43,-99.99,,,-99.99,,2013-02-28 20:32:00,
2013-02-28 13:41:00,30.0,12.0,-100.00,West,262,4.0,12.0,43,-99.99,,,-99.99,,2013-02-28 20:41:00,
2013-02-28 13:52:00,30.0,10.0,-100.00,South,171,4.0,17.0,42,-99.99,,,-99.99,,2013-02-28 20:52:00,
2013-02-28 14:01:00,30.0,10.0,-100.00,South,171,4.0,17.0,42,-99.99,,,-99.99,,2013-02-28 21:01:00,
2013-02-28 14:11:00,30.0,11.0,-100.00,WSW,239,4.0,11.0,44,-99.99,,,-99.99,,2013-02-28 21:11:00,
2013-02-28 14:22:00,31.0,9.0,-100.00,WSW,239,4.0,14.0,40,-99.99,,,-99.99,,2013-02-28 21:22:00,
2013-02-28 14:32:00,32.0,10.0,-100.00,WSW,239,4.0,7.0,40,-99.99,,,-99.99,,2013-02-28 21:32:00,
2013-02-28 14:41:00,32.0,10.0,-100.00,SW,217,2.0,7.0,40,-99.99,,,-99.99,,2013-02-28 21:41:00,
2013-02-28 14:52:00,31.0,12.0,-100.00,SW,217,2.0,7.0,43,-99.99,,,-99.99,,2013-02-28 21:52:00,
2013-02-28 15:01:00,31.0,12.0,-100.00,SW,217,2.0,13.0,43,-99.99,,,-99.99,,2013-02-28 22:01:00,
2013-02-28 15:11:00,31.0,12.0,-100.00,SSE,148,3.0,13.0,43,-99.99,,,-99.99,,2013-02-28 22:11:00,
2013-02-28 15:21:00,31.0,12.0,-100.00,SSE,148,3.0,14.0,45,-99.99,,,-99.99,,2013-02-28 22:21:00,
2013-02-28 15:32:00,31.0,12.0,-100.00,SSE,148,3.0,12.0,44,-99.99,,,-99.99,,2013-02-28 22:32:00,
2013-02-28 15:41:00,31.0,12.0,-100.00,WSW,239,2.0,12.0,44,-99.99,,,-99.99,,2013-02-28 22:41:00,
2013-02-28 15:52:00,32.0,12.0,-100.00,West,268,5.0,12.0,43,-99.99,,,-99.99,,2013-02-28 22:52:00,
2013-02-28 16:01:00,31.0,13.0,-100.00,West,268,5.0,46.0,45,-99.99,,,-99.99,,2013-02-28 23:01:00,
2013-02-28 16:11:00,31.0,13.0,-100.00,NNW,331,4.0,46.0,45,-99.99,,,-99.99,,2013-02-28 23:11:00,
2013-02-28 16:21:00,31.0,14.0,-100.00,NNW,331,4.0,12.0,48,-99.99,,,-99.99,,2013-02-28 23:21:00,
2013-02-28 16:31:00,30.0,14.0,-100.00,WSW,239,4.0,12.0,49,-99.99,,,-99.99,,2013-02-28 23:31:00,
2013-02-28 16:41:00,30.0,14.0,-100.00,WSW,239,4.0,12.0,49,-99.99,,,-99.99,,2013-02-28 23:41:00,
2013-02-28 16:52:00,29.0,13.0,-100.00,WSW,239,4.0,12.0,49,-99.99,,,-99.99,,2013-02-28 23:52:00,
2013-02-28 17:01:00,28.0,13.0,-100.00,SW,217,3.0,9.0,51,-99.99,,,-99.99,,2013-03-01 00:01:00,
2013-02-28 17:11:00,28.0,13.0,-100.00,SW,217,3.0,9.0,51,-99.99,,,-99.99,,2013-03-01 00:11:00,
2013-02-28 17:22:00,28.0,12.0,-100.00,ESE,120,4.0,10.0,52,-99.99,,,-99.99,,2013-03-01 00:22:00,
2013-02-28 17:32:00,27.0,14.0,-100.00,ESE,120,4.0,14.0,56,-99.99,,,-99.99,,2013-03-01 00:32:00,
2013-02-28 17:41:00,27.0,14.0,-100.00,NE,40,4.0,14.0,56,-99.99,,,-99.99,,2013-03-01 00:41:00,
2013-02-28 17:51:00,26.0,13.0,-100.00,NE,40,4.0,15.0,56,-99.99,,,-99.99,,2013-03-01 00:51:00,
2013-02-28 18:01:00,25.0,13.0,-100.00,NE,40,4.0,9.0,57,-99.99,,,-99.99,,2013-03-01 01:01:00,
2013-02-28 18:11:00,25.0,13.0,-100.00,SW,217,3.0,9.0,57,-99.99,,,-99.99,,2013-03-01 01:11:00,
2013-02-28 18:21:00,26.0,11.0,-100.00,SW,217,3.0,13.0,56,-99.99,,,-99.99,,2013-03-01 01:21:00,
2013-02-28 18:31:00,25.0,11.0,-100.00,SW,217,3.0,13.0,54,-99.99,,,-99.99,,2013-03-01 01:31:00,
2013-02-28 18:42:00,25.0,11.0,-100.00,SW,217,3.0,13.0,54,-99.99,,,-99.99,,2013-03-01 01:42:00,
2013-02-28 18:51:00,26.0,10.0,-100.00,NE,51,2.0,12.0,53,-99.99,,,-99.99,,2013-03-01 01:51:00,
2013-02-28 19:01:00,25.0,11.0,-100.00,NE,51,2.0,5.0,54,-99.99,,,-99.99,,2013-03-01 02:01:00,
2013-02-28 19:11:00,25.0,11.0,-100.00,NE,51,2.0,5.0,54,-99.99,,,-99.99,,2013-03-01 02:11:00,
2013-02-28 19:21:00,25.0,11.0,-100.00,NE,51,2.0,5.0,54,-99.99,,,-99.99,,2013-03-01 02:21:00,
2013-02-28 19:31:00,26.0,11.0,-100.00,WNW,302,2.0,12.0,56,-99.99,,,-99.99,,2013-03-01 02:31:00,
2013-02-28 19:42:00,26.0,11.0,-100.00,WNW,302,2.0,12.0,56,-99.99,,,-99.99,,2013-03-01 02:42:00,
2013-02-28 19:52:00,25.0,13.0,-100.00,WNW,302,2.0,12.0,57,-99.99,,,-99.99,,2013-03-01 02:52:00,
2013-02-28 20:01:00,25.0,13.0,-100.00,WNW,302,2.0,7.0,60,-99.99,,,-99.99,,2013-03-01 03:01:00,
2013-02-28 20:11:00,25.0,13.0,-100.00,NW,308,2.0,7.0,60,-99.99,,,-99.99,,2013-03-01 03:11:00,
2013-02-28 20:21:00,25.0,13.0,-100.00,NW,308,2.0,9.0,62,-99.99,,,-99.99,,2013-03-01 03:21:00,
2013-02-28 20:32:00,24.0,13.0,-100.00,NW,308,2.0,9.0,61,-99.99,,,-99.99,,2013-03-01 03:32:00,
2013-02-28 20:41:00,24.0,13.0,-100.00,NNE,23,3.0,9.0,61,-99.99,,,-99.99,,2013-03-01 03:41:00,
2013-02-28 20:51:00,25.0,13.0,-100.00,NNE,23,3.0,9.0,62,-99.99,,,-99.99,,2013-03-01 03:51:00,
2013-02-28 21:01:00,24.0,14.0,-100.00,NNE,23,3.0,9.0,62,-99.99,,,-99.99,,2013-03-01 04:01:00,
2013-02-28 21:11:00,24.0,14.0,-100.00,NE,40,3.0,9.0,62,-99.99,,,-99.99,,2013-03-01 04:11:00,
2013-02-28 21:21:00,24.0,13.0,-100.00,NE,40,3.0,9.0,63,-99.99,,,-99.99,,2013-03-01 04:21:00,
2013-02-28 21:32:00,24.0,13.0,-100.00,NE,40,3.0,9.0,64,-99.99,,,-99.99,,2013-03-01 04:32:00,
2013-02-28 21:42:00,24.0,13.0,-100.00,NE,40,3.0,9.0,64,-99.99,,,-99.99,,2013-03-01 04:42:00,
2013-02-28 21:51:00,25.0,12.0,-100.00,NE,40,3.0,9.0,60,-99.99,,,-99.99,,2013-03-01 04:51:00,
2013-02-28 22:02:00,25.0,13.0,-100.00,NE,40,3.0,6.0,61,-99.99,,,-99.99,,2013-03-01 05:02:00,
2013-02-28 22:11:00,25.0,13.0,-100.00,NE,40,3.0,6.0,61,-99.99,,,-99.99,,2013-03-01 05:11:00,
2013-02-28 22:22:00,26.0,13.0,-100.00,SE,142,1.0,7.0,60,-99.99,,,-99.99,,2013-03-01 05:22:00,
2013-02-28 22:32:00,26.0,13.0,-100.00,SE,142,1.0,7.0,58,-99.99,,,-99.99,,2013-03-01 05:32:00,
2013-02-28 22:42:00,26.0,13.0,-100.00,SE,142,1.0,7.0,58,-99.99,,,-99.99,,2013-03-01 05:42:00,
2013-02-28 22:52:00,25.0,13.0,-100.00,SE,142,1.0,4.0,57,-99.99,,,-99.99,,2013-03-01 05:52:00,
2013-02-28 23:02:00,26.0,11.0,-100.00,SE,142,1.0,5.0,56,-99.99,,,-99.99,,2013-03-01 06:02:00,
2013-02-28 23:11:00,26.0,11.0,-100.00,SE,142,1.0,5.0,56,-99.99,,,-99.99,,2013-03-01 06:11:00,
2013-02-28 23:21:00,25.0,12.0,-100.00,SE,142,1.0,11.0,56,-99.99,,,-99.99,,2013-03-01 06:21:00,
2013-02-28 23:32:00,25.0,11.0,-100.00,SE,142,1.0,11.0,56,-99.99,,,-99.99,,2013-03-01 06:32:00,
2013-02-28 23:42:00,25.0,11.0,-100.00,SE,142,1.0,11.0,56,-99.99,,,-99.99,,2013-03-01 06:42:00,
2013-02-28 23:52:00,26.0,12.0,-100.00,SE,142,1.0,5.0,58,-99.99,,,-99.99,,2013-03-01 06:52:00,